Tracking 25963 objects as of 12-Aug-2022
HD Live streaming from Space Station
objects crossing your sky now

STARLINK-4332

Track STARLINK-4332 now!
10-day predictions
STARLINK-4332 is classified as:


NORAD ID: 53190
Int'l Code: 2022-084B
Perigee: 418.8 km
Apogee: 421.1 km
Inclination: 97.7 °
Period: 92.8 minutes
Semi major axis: 6790 km
RCS: Unknown
Launch date: July 22, 2022
Source: United States (US)
Launch site: AIR FORCE WESTERN TEST RANGE (AFWTR)
aabbcc
Your satellite tracking list
Your tracking list is empty




NASA's NSSDC Master Catalog

Two Line Element Set (TLE):
1 53190U 22084B   22224.83335648 -.00151761  00000-0 -26344-2 0  9990
2 53190  97.6563 284.0979 0001672  96.3681  40.7187 15.51338462  3844
Source of the keplerian elements: AFSPC